GW1675 Weather Reports


time (UTC)temp
C
wind
direction
speed
KPH
gust
KPH
rain 1hr
cm
rain 24hr
cm
rain mn
cm
humidity
%
barometer
mb
20260510220045 15 189 1.6 4.8 0.00 0.25 0.25 75 1017.3
20260510214543 15 189 1.6 4.8 0.00 0.25 0.25 75 1017.5
20260510213100 15 0 1.6 4.8 0.00 0.25 0.25 74 1017.4
20260510211544 15 189 0.0 4.8 0.00 0.25 0.25 74 1017.4
20260510210052 15 189 3.2 6.4 0.00 0.25 0.25 74 1017.4
20260510204551 15 189 3.2 6.4 0.00 0.25 0.25 73 1017.1
20260510203044 15 189 1.6 4.8 0.00 0.25 0.25 73 1016.8
20260510201547 16 189 4.8 8.0 0.00 0.25 0.25 73 1016.9
20260510200045 16 189 3.2 8.0 0.00 0.25 0.25 73 1016.7
20260510194544 16 189 4.8 11.3 0.00 0.25 0.25 73 1016.7
20260510193049 16 189 4.8 16.1 0.00 0.25 0.25 73 1016.5
20260510191547 16 189 3.2 12.9 0.00 0.25 0.25 73 1016.3
20260510190050 17 189 9.7 22.5 0.00 0.25 0.25 73 1016.4
20260510184546 17 189 12.9 25.7 0.00 0.25 0.25 73 1016.3
20260510183056 17 189 14.5 27.4 0.00 0.25 0.25 73 1016.3
20260510181617 17 196 19.3 35.4 0.00 0.25 0.25 73 1016.3
20260510180055 17 190 12.9 25.7 0.00 0.25 0.25 73 1016.2
20260510174555 17 191 11.3 25.7 0.00 0.25 0.25 72 1016.2
20260510173045 17 186 17.7 25.7 0.00 0.25 0.25 72 1016.1
20260510171545 18 196 17.7 27.4 0.00 0.25 0.25 72 1016.2
20260510170045 18 203 12.9 25.7 0.00 0.25 0.25 73 1016.1
20260510164545 18 198 14.5 25.7 0.00 0.25 0.25 73 1016.0
20260510163053 18 199 12.9 25.7 0.00 0.25 0.25 73 1015.9
20260510161545 19 201 14.5 27.4 0.00 0.25 0.25 73 1015.9
20260510160044 19 205 14.5 29.0 0.00 0.25 0.25 74 1015.7
20260510154538 19 198 16.1 29.0 0.00 0.25 0.25 74 1015.8
20260510153050 19 197 19.3 33.8 0.00 0.25 0.25 74 1015.9
20260510151549 19 186 14.5 32.2 0.00 0.25 0.25 75 1015.6
20260510150048 18 193 20.9 37.0 0.00 0.25 0.25 75 1015.7
20260510144545 19 198 17.7 33.8 0.00 0.25 0.25 75 1015.8
20260510143059 19 191 17.7 38.6 0.00 0.25 0.25 75 1015.9
20260510141545 19 193 14.5 32.2 0.00 0.25 0.25 76 1016.0
20260510140045 19 213 17.7 38.6 0.00 0.25 0.25 76 1015.9
20260510134555 19 211 19.3 40.2 0.00 0.25 0.25 76 1015.9
20260510133044 19 201 17.7 30.6 0.00 0.25 0.25 77 1015.9
20260510131546 19 197 19.3 38.6 0.00 0.25 0.25 77 1015.9
20260510130045 19 194 16.1 32.2 0.00 0.25 0.25 77 1015.9
20260510124551 19 202 22.5 33.8 0.00 0.25 0.25 78 1015.9
20260510123046 19 211 20.9 38.6 0.00 0.25 0.25 78 1015.9
20260510121545 18 201 14.5 37.0 0.00 0.25 0.25 79 1015.9
20260510120046 18 193 12.9 35.4 0.00 0.25 0.25 79 1016.0
20260510114554 18 203 17.7 37.0 0.00 0.25 0.25 79 1015.9
20260510113051 18 191 22.5 33.8 0.00 0.25 0.25 80 1015.9
20260510111548 18 188 19.3 33.8 0.00 0.25 0.25 80 1015.8
20260510110044 18 187 16.1 29.0 0.00 0.25 0.25 80 1016.1
20260510104545 18 193 11.3 24.1 0.00 0.25 0.25 81 1016.0
20260510103052 17 198 14.5 24.1 0.00 0.25 0.25 81 1016.0
20260510101544 17 200 14.5 27.4 0.00 0.25 0.25 81 1016.0
20260510100106 17 204 19.3 32.2 0.00 0.25 0.25 82 1015.9
20260510094549 18 197 16.1 35.4 0.00 0.25 0.25 82 1015.8
20260510093049 17 190 14.5 29.0 0.00 0.25 0.25 83 1015.4
20260510091544 17 185 11.3 32.2 0.00 0.25 0.25 83 1015.4
20260510090055 17 181 17.7 33.8 0.00 0.25 0.25 83 1015.1
20260510084549 17 182 9.7 22.5 0.00 0.25 0.25 83 1015.0
20260510083054 16 184 11.3 24.1 0.00 0.25 0.25 83 1014.9
20260510081549 16 184 8.0 19.3 0.00 0.25 0.25 83 1014.9
20260510080052 16 184 6.4 14.5 0.00 0.25 0.25 83 1014.9
20260510074544 15 184 6.4 17.7 0.00 0.38 0.25 83 1014.8
20260510073044 15 184 4.8 20.9 0.00 0.38 0.25 83 1014.9
20260510071553 15 184 8.0 19.3 0.00 0.38 0.25 82 1014.7
20260510070050 14 184 3.2 9.7 0.00 0.38 0.25 82 1014.5
20260510064546 13 184 4.8 17.7 0.03 0.41 0.25 82 1014.6
20260510063046 13 184 1.6 6.4 0.08 0.41 0.25 82 1014.3
20260510061550 13 184 3.2 8.0 0.08 0.41 0.25 81 1014.3
20260510060047 13 184 4.8 9.7 0.08 0.41 0.25 81 1014.1
20260510054545 13 184 0.0 3.2 0.03 0.38 0.18 81 1014.3
20260510053049 13 0 0.0 0.0 0.00 0.36 0.15 81 1014.2
20260510051546 13 0 0.0 0.0 0.00 0.36 0.15 81 1014.1
20260510050047 13 184 1.6 6.4 0.00 0.36 0.15 81 1013.8
20260510044546 13 184 3.2 8.0 0.00 0.36 0.15 81 1013.7
20260510043053 13 184 4.8 9.7 0.15 0.36 0.15 81 1013.7
20260510041545 13 184 3.2 6.4 0.15 0.36 0.15 81 1013.8
20260510040053 13 184 3.2 14.5 0.15 0.36 0.15 81 1013.8
20260510034546 14 184 8.0 14.5 0.08 0.28 0.08 81 1013.8
20260510033110 14 185 8.0 14.5 0.00 0.18 0.00 81 1013.8
20260510031551 15 185 4.8 11.3 0.00 0.18 0.00 81 1013.9
20260510030045 15 185 4.8 9.7 0.00 0.18 0.00 81 1013.9
20260510024546 15 185 3.2 8.0 0.00 0.36 0.00 81 1013.8
20260510023045 15 185 3.2 8.0 0.00 0.36 0.00 81 1013.7
20260510021547 15 185 3.2 8.0 0.00 0.36 0.00 80 1013.9
20260510020046 15 185 1.6 3.2 0.00 0.36 0.00 80 1014.0
20260510014544 15 185 0.0 3.2 0.00 0.51 0.00 80 1014.1
20260510013049 15 185 0.0 6.4 0.00 0.51 0.00 80 1014.1
20260510011552 15 185 1.6 3.2 0.00 0.51 0.00 80 1014.2
20260510010045 15 0 1.6 6.4 0.00 0.51 0.00 80 1014.2
20260510004550 15 185 1.6 6.4 0.00 0.51 0.00 80 1014.5
20260510003104 15 185 1.6 4.8 0.00 0.51 0.00 79 1014.6
20260510001545 15 0 1.6 6.4 0.00 0.51 0.00 79 1014.7
20260510000047 15 185 3.2 6.4 0.00 0.51 0.00 79 1014.7
20260509234601 15 185 3.2 8.0 0.00 0.74 0.00 79 1014.9
20260509233047 15 185 3.2 8.0 0.00 0.74 0.00 79 1015.1
20260509231552 16 185 8.0 12.9 0.00 0.74 0.00 79 1015.2
20260509230053 15 185 4.8 9.7 0.00 0.74 0.00 79 1015.2
20260509224549 15 185 8.0 14.5 0.00 0.84 0.74 79 1015.1
20260509223053 16 185 3.2 14.5 0.00 0.84 0.74 79 1015.2
20260509221545 16 185 4.8 11.3 0.00 0.84 0.74 79 1015.2